Key statistics
Satellite COSMOS 1726 at a glance.
Uptime
14166
Days in orbit
Revolutions
≈ 15.5
Per day
Orbit
LEO
Low Earth Orbit
Inclination
82.5
Latest
Satellite identification and parameters
Extended collection of information and parameters for COSMOS 1726.
Object identification
Identified? True
Debris? False
Object name: COSMOS 1726
International designator: 1986-006A
Object number (NORAD): 16495
Object ID (CCSDS): 16495
Country: COMMONWEALTH OF INDEPENDENT STATES (CIS)
Current information (Y/N): Y
RCS size: LARGE
Orbital parameters
Decay date: Oct. 30, 2024
Period: 92.988 minutes
Inclination: 82.4652 deg
SMA: 6799.018 km
Apoapsis: 425.79 km
Periapsis: 415.977 km
RAAN: 137.0888 deg
Eccentricy: 0.0007217
Argument of periapsis: 253.2199 deg
Mean anomaly: 106.826 deg
Mean motion: 15.48579248 rev/day
Mean motion (dot): 0.00043664 rev/day2
B* drag term: 0.00081457 1/REarth
Two-line elements (TLE)
Creation date: Feb. 12, 2024, 3:07 a.m.
Reference frame: TEME
Reference center: EARTH
Epoch: Feb. 11, 2024, 5:55 p.m. UTC
TLE line 0: 0 COSMOS 1726
TLE line 1: 1 16495U 86006A 24042.74663150 .00043664 00000-0 81457-3 0 9990
TLE line 2: 2 16495 82.4652 137.0888 0007217 253.2199 106.8260 15.48579248 87132
Live tracking on map
Satellite COSMOS 1726 has decayed and is no longer in orbit. No tracking available.
In-orbit conjunctions
Satellite COSMOS 1726 has decayed and is no longer in orbit. No conjunctions available.
Associated space launch
Tselina-D satellites provided detailed observation of radio sources detected by the smaller Tselina-O satellites as part of the Tselina ELINT system.
COSMOS 1726 was lifted into orbit during the mission ‘Tsiklon-3 | Tselina-D 53’, on board a Tsiklon-3 space rocket.
The launch took place on Jan. 17, 1986, 7:21 a.m. from 32/1.
For more information about the launch, click the button.
Tsiklon-3 | Tselina-D 53
Agency: N/A
Status: Launch Successful
Launch date: Jan. 17, 1986, 7:21 a.m. UTC
Rocket: Tsiklon-3
Launch pad: 32/1
Location: Plesetsk Cosmodrome, Russian Federation
...
Latest news about this satellite
There are no fresh news available about this satellite. Check back as we update our databases every day.
Newsletter sign-up
Weekly statistics, charts and insights to help you stay on top of the space industry.
